📊 Raw Sensor Data

Showing records 33026 to 33050 of 84,748 total

ID Distance (ft) Battery V Battery A Int Temp (°F) Int Humid (%) Ext Temp (°F) Solar V RSSI SNR Time Stamp
51735 14.5 3.96 -5 64 45 65 0.10 -65 8 09/11/2025 10:45 PM
51734 14.5 3.96 -5 64 45 65 0.00 -75 8 09/11/2025 10:30 PM
51733 14.5 3.96 -5 64 46 65 0.00 -75 8 09/11/2025 10:15 PM
51732 14.5 3.96 -5 65 46 66 0.00 -74 8 09/11/2025 10:00 PM
51731 14.5 4.02 -5 65 46 66 0.00 -75 8 09/11/2025 09:45 PM
51730 14.5 4.02 -5 65 46 66 0.00 -74 8 09/11/2025 09:30 PM
51729 14.5 3.96 -5 66 47 66 0.00 -75 8 09/11/2025 09:15 PM
51728 14.5 3.96 -5 66 47 67 0.00 -74 8 09/11/2025 09:00 PM
51727 14.5 4.02 -5 67 48 67 0.00 -76 8 09/11/2025 08:45 PM
51726 14.5 3.96 -5 67 49 68 0.00 -75 8 09/11/2025 08:30 PM
51725 14.5 3.97 -5 68 49 68 0.00 -76 8 09/11/2025 08:15 PM
51724 14.5 4.02 -5 69 51 69 0.00 -77 8 09/11/2025 08:00 PM
51723 14.5 3.97 -5 70 52 69 0.00 -78 8 09/11/2025 07:45 PM
51722 14.5 4.02 -5 72 53 70 0.80 -76 7 09/11/2025 07:30 PM
51721 14.5 3.96 -24 75 54 72 3.30 -75 8 09/11/2025 07:15 PM
51720 14.5 3.98 0 80 52 74 4.50 -75 8 09/11/2025 07:00 PM
51719 14.5 4.06 -7 84 51 78 4.50 -77 8 09/11/2025 06:45 PM
51718 14.5 4.05 22 88 50 80 4.50 -84 8 09/11/2025 06:30 PM
51717 14.6 4.02 0 90 49 82 5.10 -82 8 09/11/2025 06:15 PM
51716 14.6 4.05 5 92 49 84 5.10 -77 8 09/11/2025 06:00 PM
51715 14.7 4.02 0 93 48 84 5.10 -78 7 09/11/2025 05:45 PM
51714 14.7 4.02 0 95 47 83 5.10 -77 7 09/11/2025 05:30 PM
51713 14.7 4.12 5 97 45 86 5.10 -78 8 09/11/2025 05:15 PM
51712 14.7 4.02 5 97 45 88 5.10 -75 8 09/11/2025 05:00 PM
51711 14.6 4.01 0 92 49 82 5.10 -76 8 09/11/2025 04:45 PM